Location: Presov
(49.0000°N, 21.2500°E)
Time: 11:14:46
(UTC+01:00)

XW-2F - Visible Passes

Search period start: 30 November 2023 00:00
Search period end: 10 December 2023 00:00
Orbit: 401 x 407 km, 97.4° (Epoch: 29 November)

Date Brightness Start Highest point End Pass type
(mag) Time Alt. Az. Time Alt. Az. Time Alt. Az.
30 Nov ? 05:47:34 10° ENE 05:48:27 11° E 05:49:20 10° ESE visible
01 Dec ? 06:28:30 10° NNE 06:31:25 34° E 06:34:18 10° SSE visible
03 Dec ? 06:21:38 10° NE 06:24:24 28° E 06:27:08 10° SSE visible
05 Dec ? 06:14:08 10° NE 06:16:39 22° E 06:19:10 10° SSE visible
07 Dec ? 06:06:01 10° NE 06:08:12 17° E 06:10:22 10° SE visible
09 Dec ? 05:57:22 10° ENE 05:59:02 14° E 06:00:41 10° SE visible
